Weather History for Frenchville, ME

Change the Weather History Date:

Thursday, December 29, 2011

  Actual Average Record
Temperature  
Mean Temperature 11 °F 12 °F  
Max Temperature 17 °F 20 °F 41 °F (2003)
Min Temperature 5 °F 4 °F -2 °F (1997)
Degree Days  
Heating Degree Days 54    
Month to date heating degree days 1284  
Since 1 July heating degree days 3184  
Cooling Degree Days 0    
Month to date cooling degree days 0  
Year to date cooling degree days 87  
Moisture  
Dew Point 3 °F    
Average Humidity 76    
Maximum Humidity 86    
Minimum Humidity 67    
Precipitation  
Precipitation T in 0.07 in 0.47 in (2005)
Month to date precipitation 1.43 2.43  
Year to date precipitation 40.77 33.49  
Sea Level Pressure  
Sea Level Pressure 29.32 in    
Wind  
Wind Speed 20 mph (WNW)    
Max Wind Speed 36 mph    
Max Gust Speed 45 mph    
T = Trace of Precipitation, MM = Missing Value Source: NWS Daily Summary

Daily Weather History Graph

Daily Weather History Graph

Search for Another Location

Airport:

Trip Planner

Search our weather history database for the weather conditions in past years. The results will help you decide how hot, cold, wet, or windy it might be!

Date:

Astronomy

Dec. 29, 2011 Rise Set
Actual Time 7:19 AM EST 3:50 PM EST
Civil Twilight 6:44 AM EST 4:26 PM EST
Nautical Twilight 6:05 AM EST 5:05 PM EST
Astronomical Twilight 5:28 AM EST 5:42 PM EST
Moon 9:50 AM EST (12/29) 9:47 PM EST (12/29)
Length of Visible Light 9h 41m
Length of Day
8h 30m
Waxing Crescent, 26% of the Moon is Illuminated
Dec 29
Waxing Crescent
Jan 1
First Quarter
Jan 9
Full
Jan 16
Last Quarter
Jan 23
New

Hourly Weather History & Observations

Time (EST) Temp. Windchill Dew Point Humidity Pressure Visibility Wind Dir Wind Speed Gust Speed Precip Events Conditions
12:18 AM 15.8 °F -0.2 °F 12.2 °F 86% 29.09 in - West 17.3 mph - 0.00 in Snow Light Snow
12:25 AM 15.8 °F -0.2 °F 12.2 °F 86% 29.10 in - West 17.3 mph - 0.00 in Snow Light Snow
12:32 AM 15.8 °F -1.9 °F 10.4 °F 79% 29.10 in - West 21.9 mph 28.8 mph 0.00 in Snow Light Snow
12:41 AM 15.8 °F 0.9 °F 10.4 °F 79% 29.10 in - West 15.0 mph 28.8 mph 0.00 in Snow Light Snow
12:53 AM 15.1 °F -3.7 °F 10.0 °F 80% 29.13 in - WNW 24.2 mph 33.4 mph 0.00 in Snow Light Snow
1:53 AM 12.9 °F -2.8 °F 9.0 °F 84% 29.16 in - West 15.0 mph 25.3 mph 0.00 in Snow Light Snow
2:11 AM 12.2 °F -7.1 °F 6.8 °F 79% 29.13 in - West 23.0 mph 35.7 mph 0.00 in Snow Light Snow
2:53 AM 10.9 °F -9.9 °F 3.9 °F 73% 29.18 in - WNW 26.5 mph 38.0 mph 0.00 in   Overcast
3:53 AM 9.0 °F -11.0 °F 3.0 °F 77% 29.20 in - WNW 21.9 mph 34.5 mph 0.00 in   Mostly Cloudy
4:53 AM 9.0 °F -10.0 °F 1.9 °F 73% 29.22 in - WNW 19.6 mph 34.5 mph 0.00 in   Overcast
5:43 AM 6.8 °F -11.3 °F 1.4 °F 79% 29.20 in - WNW 16.1 mph 27.6 mph 0.00 in   Mostly Cloudy
5:53 AM 7.0 °F -11.0 °F -0.0 °F 73% 29.25 in - WNW 16.1 mph 26.5 mph 0.00 in   Overcast
6:06 AM 6.8 °F -11.3 °F 1.4 °F 79% 29.21 in - WNW 16.1 mph 25.3 mph 0.00 in Snow Light Snow
6:20 AM 6.8 °F -12.9 °F 1.4 °F 79% 29.21 in - WNW 19.6 mph 26.5 mph 0.00 in Snow Light Snow
6:32 AM 6.8 °F -11.8 °F -0.4 °F 72% 29.22 in - WNW 17.3 mph 29.9 mph N/A Snow Light Snow
6:53 AM 6.1 °F -10.2 °F -0.9 °F 73% 29.26 in - West 12.7 mph 24.2 mph 0.00 in   Overcast
7:42 AM 5.0 °F -13.6 °F -0.4 °F 78% 29.24 in - WNW 16.1 mph 24.2 mph 0.00 in   Overcast
7:50 AM 6.8 °F -13.8 °F -0.4 °F 72% 29.24 in - WNW 21.9 mph 26.5 mph 0.00 in   Overcast
7:53 AM 6.1 °F -13.3 °F -0.0 °F 76% 29.28 in - WNW 18.4 mph 26.5 mph 0.00 in   Overcast
8:53 AM 7.0 °F -11.6 °F 1.9 °F 80% 29.29 in - West 17.3 mph 26.5 mph 0.00 in Snow Light Snow
9:53 AM 6.8 °F -15.1 °F 1.4 °F 79% 29.26 in - West 25.3 mph 33.4 mph N/A   Overcast
10:53 AM 9.0 °F -12.2 °F 1.9 °F 73% 29.30 in - West 25.3 mph 36.8 mph 0.00 in   Overcast
11:53 AM 9.0 °F -12.6 °F 1.9 °F 73% 29.32 in - West 26.5 mph 39.1 mph 0.00 in   Overcast
12:53 PM 10.0 °F -10.8 °F 1.9 °F 70% 29.34 in - WNW 25.3 mph 36.8 mph 0.00 in   Overcast
1:53 PM 10.0 °F -9.5 °F 1.0 °F 67% 29.39 in - WNW 21.9 mph 26.5 mph 0.00 in   Overcast
2:04 PM 10.4 °F -7.7 °F 1.4 °F 67% 29.34 in - West 18.4 mph 26.5 mph N/A   Overcast
2:53 PM 10.0 °F -10.0 °F 1.0 °F 67% 29.42 in - West 23.0 mph 36.8 mph 0.00 in   Overcast
3:53 PM 9.0 °F -9.5 °F 1.0 °F 70% 29.46 in - West 18.4 mph 29.9 mph 0.00 in   Overcast
4:53 PM 8.1 °F -10.7 °F 1.0 °F 73% 29.50 in - West 18.4 mph - N/A   Overcast
5:53 PM 7.0 °F -9.8 °F 1.9 °F 80% 29.53 in - West 13.8 mph - N/A   Overcast
6:53 PM 6.8 °F -11.3 °F 1.4 °F 79% 29.51 in - West 16.1 mph 24.2 mph N/A   Overcast
7:53 PM 6.1 °F -10.9 °F 1.0 °F 80% 29.60 in - West 13.8 mph 19.6 mph N/A   Overcast
8:53 PM 7.0 °F -13.6 °F 1.0 °F 77% 29.62 in - West 21.9 mph 28.8 mph 0.00 in   Overcast
9:53 PM 7.0 °F -13.1 °F 1.0 °F 77% 29.65 in - WNW 20.7 mph 28.8 mph 0.00 in   Overcast
10:53 PM 7.0 °F -11.0 °F 1.0 °F 77% 29.69 in - WNW 16.1 mph 27.6 mph 0.00 in   Overcast
11:53 PM 7.0 °F -11.6 °F 1.0 °F 77% 29.72 in - West 17.3 mph - N/A   Overcast